CZ-6A DEB, 54432

Orbit data source: Space-Track

CZ-6A DEB, 54432 is space debris in SSO originally from a launch on Fri, 11 Nov 2022 UTC launched from the Taiyaun Space Center, China (TSC). Debris objects in space refer to the collection of defunct objects orbiting the Earth. Examples of debris include non-operational satellites, rocket bodies, and fragments generated from explosions, collisions, or faulty payload assembly.

Loading next visibility...
Identifier
54432, 2022-151FG
Orbit
SSO
Country
Flag of CNCN / PRC
Related business
Manufacturer
SAST
Mission
Spacecraft
Bus & Motor
Unknown
Mass
Unknown
Launch date (UTC)
2022-11-11 (4 years ago)
Launch vehicle
Unknown
Launch site
Taiyaun Space Center, China (TSC)
Object type
Payload
Rocket body
Debris
Shape & HBR
Unknown shape, 0.1 m
Radar Cross Section
Medium (>0.1 m² and <1 m²)

Expand to show TLE details & history
Last TLE update: 1 day ago

TLE from 1 day ago
0 CZ-6A DEB
1 54432U 22151FG  26237.46258230  .00002406  00000-0  12321-2 0  9992
2 54432  98.9953 241.8582 0170043 152.6699 208.3544 14.09234522193300
Epoch: 2026-08-25T11:06Z
TLE epoch observation values (Epoch: 2026-08-25T11:06:07.110Z)
Latitude
-0.00007°
Longitude
101.599°
Altitude
973.711 km
Speed
7.309 km/s
True Right ascension
16h 07m 25s
True Declination
0° 00' 00"
Sunlit
Object was in daylight at epoch
Visualization orbit readout
Latitude
Unknown
Longitude
Unknown
Altitude
Unknown
Speed
Unknown
Apparent Right ascension
Unknown
Apparent Declination
Unknown
Sunlit
N/A
Visualization observer readout
Local Sidereal Time
11:15:34
Azimuth
Unknown
Elevation
Unknown
Doppler factor
Unknown
Orbital elements
Apogee altitude
982.243 km
Perigee altitude
736.112 km
Semi-major axis
7,237.315 km
Eccentricity
0.017
Inclination
98.9953°
RAAN
241.8582°
Arg. of periapsis
152.6699°
True anomaly
207.44603°
Mean anomaly
208.3544°
Eccentric anomaly
207.89853°
Mean motion
3.52514 °/min
Orbital period
102.12 mins
BSTAR
0.0012321
Loading maneuver chart data...
Computing Atmospheric mass density...
Loading historical data...
Loading historical data...
Loading historical data...
Loading historical data...
Loading historical data...
Loading historical data...
Loading historical data...

Documentation

Showing up to 5 results
|